contact:dominique.lefevre@mio.osupytheas.fr, maurice.libes@osupytheas.fr, didier.mallarino@osupytheas.fr
Project:EMSO http://www.emso-fr.org/EMSO-France
Depth: 2436.0 m
Title:EMSO Ligure Ouest : Data MII capteur MICROCAT
DateTime_Computer,Latitude,Longitude,Temperature,Conductivity,Pressure,DateTime_Instrument
DateTime_Computer,Latitude,Longitude,degC,S m-1,dbar,DateTime_Instrument
2017-11-26T00:00:19Z,42.805,6.029,13.2976,4.60036,2472.069,2017-11-26T02:01:48Z
2017-11-26T00:03:22Z,42.805,6.029,13.2966,4.60038,2472.092,2017-11-26T02:04:50Z
2017-11-26T00:06:25Z,42.805,6.029,13.2981,4.60021,2472.1,2017-11-26T02:07:53Z
2017-11-26T00:09:28Z,42.805,6.029,13.3004,4.60006,2472.077,2017-11-26T02:10:56Z
2017-11-26T00:12:31Z,42.805,6.029,13.2998,4.60071,2472.1,2017-11-26T02:13:59Z
2017-11-26T00:15:34Z,42.805,6.029,13.2982,4.60044,2472.115,2017-11-26T02:17:02Z
2017-11-26T00:18:37Z,42.805,6.029,13.2990,4.59997,2472.115,2017-11-26T02:20:05Z
2017-11-26T00:21:40Z,42.805,6.029,13.2958,4.60013,2472.1,2017-11-26T02:23:08Z
2017-11-26T00:24:42Z,42.805,6.029,13.2973,4.59981,2472.115,2017-11-26T02:26:11Z
2017-11-26T00:27:45Z,42.805,6.029,13.2966,4.60015,2472.092,2017-11-26T02:29:14Z
2017-11-26T00:30:48Z,42.805,6.029,13.2970,4.60037,2472.092,2017-11-26T02:32:16Z
2017-11-26T00:33:51Z,42.805,6.029,13.2988,4.60000,2472.137,2017-11-26T02:35:19Z
2017-11-26T00:36:54Z,42.805,6.029,13.2954,4.60033,2472.077,2017-11-26T02:38:22Z
2017-11-26T00:39:57Z,42.805,6.029,13.2988,4.60017,2472.092,2017-11-26T02:41:25Z
2017-11-26T00:43:00Z,42.805,6.029,13.2968,4.60045,2472.115,2017-11-26T02:44:28Z
2017-11-26T00:46:03Z,42.805,6.029,13.2968,4.60046,2472.092,2017-11-26T02:47:31Z
2017-11-26T00:49:06Z,42.805,6.029,13.2977,4.60023,2472.069,2017-11-26T02:50:34Z
2017-11-26T00:52:08Z,42.805,6.029,13.2995,4.59996,2472.092,2017-11-26T02:53:37Z
2017-11-26T00:55:11Z,42.805,6.029,13.2971,4.59983,2472.123,2017-11-26T02:56:40Z
2017-11-26T00:58:14Z,42.805,6.029,13.2973,4.60017,2472.115,2017-11-26T02:59:42Z
2017-11-26T01:01:17Z,42.805,6.029,13.2953,4.60003,2472.069,2017-11-26T03:02:45Z
2017-11-26T01:04:20Z,42.805,6.029,13.2979,4.60022,2472.129,2017-11-26T03:05:48Z
2017-11-26T01:07:23Z,42.805,6.029,13.2966,4.60004,2472.1,2017-11-26T03:08:51Z
2017-11-26T01:10:26Z,42.805,6.029,13.2966,4.60018,2472.092,2017-11-26T03:11:54Z
2017-11-26T01:13:29Z,42.805,6.029,13.2986,4.60014,2472.069,2017-11-26T03:14:57Z
2017-11-26T01:16:32Z,42.805,6.029,13.2970,4.59978,2472.092,2017-11-26T03:18:00Z
2017-11-26T01:19:34Z,42.805,6.029,13.2967,4.59990,2472.1,2017-11-26T03:21:03Z
2017-11-26T01:22:37Z,42.805,6.029,13.2974,4.59983,2472.077,2017-11-26T03:24:06Z
2017-11-26T01:25:40Z,42.805,6.029,13.2971,4.59987,2472.077,2017-11-26T03:27:08Z
2017-11-26T01:28:43Z,42.805,6.029,13.2959,4.59987,2472.055,2017-11-26T03:30:11Z
2017-11-26T01:31:46Z,42.805,6.029,13.2955,4.60009,2472.092,2017-11-26T03:33:14Z
2017-11-26T01:34:49Z,42.805,6.029,13.2951,4.60077,2472.077,2017-11-26T03:36:17Z
2017-11-26T01:37:52Z,42.805,6.029,13.2971,4.60009,2472.092,2017-11-26T03:39:20Z
2017-11-26T01:40:55Z,42.805,6.029,13.2979,4.59992,2472.032,2017-11-26T03:42:23Z
2017-11-26T01:43:58Z,42.805,6.029,13.2964,4.59984,2472.069,2017-11-26T03:45:26Z
2017-11-26T01:47:00Z,42.805,6.029,13.2963,4.60001,2472.055,2017-11-26T03:48:29Z
2017-11-26T01:50:03Z,42.805,6.029,13.2966,4.59988,2472.055,2017-11-26T03:51:32Z
2017-11-26T01:53:06Z,42.805,6.029,13.2966,4.60002,2472.092,2017-11-26T03:54:35Z
2017-11-26T01:56:09Z,42.805,6.029,13.2970,4.59997,2472.092,2017-11-26T03:57:37Z
2017-11-26T01:59:12Z,42.805,6.029,13.2987,4.59978,2472.092,2017-11-26T04:00:40Z
2017-11-26T02:02:15Z,42.805,6.029,13.2953,4.59997,2472.069,2017-11-26T04:03:43Z
2017-11-26T02:05:18Z,42.805,6.029,13.2960,4.60011,2472.069,2017-11-26T04:06:46Z
2017-11-26T02:08:21Z,42.805,6.029,13.2954,4.60012,2472.077,2017-11-26T04:09:49Z
2017-11-26T02:11:24Z,42.805,6.029,13.2961,4.60003,2472.055,2017-11-26T04:12:52Z
2017-11-26T02:14:27Z,42.805,6.029,13.2967,4.59973,2472.055,2017-11-26T04:15:55Z
2017-11-26T02:17:29Z,42.805,6.029,13.2963,4.59972,2472.055,2017-11-26T04:18:58Z
2017-11-26T02:20:32Z,42.805,6.029,13.2958,4.59975,2472.069,2017-11-26T04:22:01Z
2017-11-26T02:23:35Z,42.805,6.029,13.2970,4.59974,2472.092,2017-11-26T04:25:03Z
2017-11-26T02:26:38Z,42.805,6.029,13.2977,4.59986,2472.092,2017-11-26T04:28:06Z
2017-11-26T02:29:41Z,42.805,6.029,13.2974,4.60001,2472.115,2017-11-26T04:31:09Z
2017-11-26T02:32:44Z,42.805,6.029,13.2953,4.60012,2472.069,2017-11-26T04:34:12Z
2017-11-26T02:35:47Z,42.805,6.029,13.2965,4.60006,2472.069,2017-11-26T04:37:15Z
2017-11-26T02:38:50Z,42.805,6.029,13.2977,4.59997,2472.092,2017-11-26T04:40:18Z
2017-11-26T02:41:53Z,42.805,6.029,13.2975,4.60024,2472.069,2017-11-26T04:43:21Z
2017-11-26T02:44:55Z,42.805,6.029,13.2971,4.59987,2472.069,2017-11-26T04:46:24Z
2017-11-26T02:47:58Z,42.805,6.029,13.2978,4.60035,2472.077,2017-11-26T04:49:27Z
2017-11-26T02:51:01Z,42.805,6.029,13.2982,4.60018,2472.069,2017-11-26T04:52:29Z
2017-11-26T02:54:04Z,42.805,6.029,13.2957,4.60010,2472.055,2017-11-26T04:55:32Z
2017-11-26T02:57:07Z,42.805,6.029,13.2964,4.59989,2472.047,2017-11-26T04:58:35Z
2017-11-26T03:00:10Z,42.805,6.029,13.2963,4.59973,2472.069,2017-11-26T05:01:38Z
2017-11-26T03:03:13Z,42.805,6.029,13.2948,4.59981,2472.069,2017-11-26T05:04:41Z
2017-11-26T03:06:16Z,42.805,6.029,13.2952,4.59990,2472.069,2017-11-26T05:07:44Z
2017-11-26T03:09:19Z,42.805,6.029,13.2952,4.60039,2472.069,2017-11-26T05:10:47Z
2017-11-26T03:12:21Z,42.805,6.029,13.2959,4.60029,2472.055,2017-11-26T05:13:50Z
2017-11-26T03:15:24Z,42.805,6.029,13.2952,4.60025,2472.092,2017-11-26T05:16:53Z
2017-11-26T03:18:27Z,42.805,6.029,13.2980,4.60028,2472.069,2017-11-26T05:19:56Z
2017-11-26T03:21:30Z,42.805,6.029,13.2976,4.60031,2472.055,2017-11-26T05:22:58Z
2017-11-26T03:24:33Z,42.805,6.029,13.2974,4.60003,2472.032,2017-11-26T05:26:01Z
2017-11-26T03:27:36Z,42.805,6.029,13.2964,4.59997,2472.047,2017-11-26T05:29:04Z
2017-11-26T03:30:39Z,42.805,6.029,13.2975,4.59997,2472.069,2017-11-26T05:32:07Z
2017-11-26T03:33:42Z,42.805,6.029,13.2995,4.60037,2472.069,2017-11-26T05:35:10Z
2017-11-26T03:36:45Z,42.805,6.029,13.2950,4.59982,2472.047,2017-11-26T05:38:13Z
2017-11-26T03:39:47Z,42.805,6.029,13.2960,4.60015,2472.069,2017-11-26T05:41:16Z
2017-11-26T03:42:50Z,42.805,6.029,13.2968,4.60011,2472.047,2017-11-26T05:44:19Z
2017-11-26T03:45:53Z,42.805,6.029,13.2985,4.60018,2472.047,2017-11-26T05:47:22Z
2017-11-26T03:48:56Z,42.805,6.029,13.3012,4.60006,2472.077,2017-11-26T05:50:24Z
2017-11-26T03:51:59Z,42.805,6.029,13.2954,4.60079,2472.055,2017-11-26T05:53:27Z
2017-11-26T03:55:02Z,42.805,6.029,13.2984,4.60022,2472.047,2017-11-26T05:56:30Z
2017-11-26T03:58:05Z,42.805,6.029,13.2980,4.60015,2472.047,2017-11-26T05:59:33Z
2017-11-26T04:01:08Z,42.805,6.029,13.2979,4.60023,2472.069,2017-11-26T06:02:36Z
2017-11-26T04:04:11Z,42.805,6.029,13.2993,4.60036,2472.069,2017-11-26T06:05:39Z
2017-11-26T04:07:13Z,42.805,6.029,13.2996,4.60043,2472.084,2017-11-26T06:08:42Z
2017-11-26T04:10:16Z,42.805,6.029,13.2979,4.60016,2472.047,2017-11-26T06:11:45Z
2017-11-26T04:13:19Z,42.805,6.029,13.2988,4.60024,2472.047,2017-11-26T06:14:48Z
2017-11-26T04:16:22Z,42.805,6.029,13.2970,4.60049,2472.047,2017-11-26T06:17:50Z
2017-11-26T04:19:25Z,42.805,6.029,13.2998,4.60008,2472.092,2017-11-26T06:20:53Z
2017-11-26T04:22:28Z,42.805,6.029,13.2978,4.60060,2472.047,2017-11-26T06:23:56Z
2017-11-26T04:25:31Z,42.805,6.029,13.2988,4.60035,2472.047,2017-11-26T06:26:59Z
2017-11-26T04:28:34Z,42.805,6.029,13.2978,4.60048,2472.047,2017-11-26T06:30:02Z
2017-11-26T04:31:37Z,42.805,6.029,13.2982,4.60036,2472.024,2017-11-26T06:33:05Z
2017-11-26T04:34:40Z,42.805,6.029,13.2992,4.60050,2472.032,2017-11-26T06:36:08Z
2017-11-26T04:37:42Z,42.805,6.029,13.2964,4.60029,2472.032,2017-11-26T06:39:11Z
2017-11-26T04:40:45Z,42.805,6.029,13.2959,4.60024,2472.069,2017-11-26T06:42:14Z
2017-11-26T04:43:48Z,42.805,6.029,13.2967,4.60069,2472.047,2017-11-26T06:45:16Z
2017-11-26T04:46:51Z,42.805,6.029,13.2980,4.60022,2472.024,2017-11-26T06:48:19Z
2017-11-26T04:49:54Z,42.805,6.029,13.2957,4.60036,2472.047,2017-11-26T06:51:22Z
2017-11-26T04:52:57Z,42.805,6.029,13.2976,4.60031,2472.024,2017-11-26T06:54:25Z
2017-11-26T04:56:00Z,42.805,6.029,13.2953,4.60020,2472.069,2017-11-26T06:57:28Z
2017-11-26T04:59:03Z,42.805,6.029,13.2958,4.60029,2472.047,2017-11-26T07:00:31Z
2017-11-26T05:02:06Z,42.805,6.029,13.2968,4.60025,2472.01,2017-11-26T07:03:34Z
2017-11-26T05:05:08Z,42.805,6.029,13.2953,4.60058,2472.047,2017-11-26T07:06:37Z
2017-11-26T05:08:11Z,42.805,6.029,13.2972,4.60047,2472.047,2017-11-26T07:09:40Z
2017-11-26T05:11:14Z,42.805,6.029,13.2968,4.60031,2472.047,2017-11-26T07:12:43Z
2017-11-26T05:14:17Z,42.805,6.029,13.2982,4.60032,2472.047,2017-11-26T07:15:45Z
2017-11-26T05:17:20Z,42.805,6.029,13.2967,4.60009,2472.047,2017-11-26T07:18:48Z
2017-11-26T05:20:23Z,42.805,6.029,13.2961,4.60044,2472.069,2017-11-26T07:21:51Z
2017-11-26T05:23:26Z,42.805,6.029,13.2954,4.60038,2472.069,2017-11-26T07:24:54Z
2017-11-26T05:26:29Z,42.805,6.029,13.2978,4.60040,2472.047,2017-11-26T07:27:57Z
2017-11-26T05:29:32Z,42.805,6.029,13.2948,4.60041,2472.069,2017-11-26T07:31:00Z
2017-11-26T05:32:34Z,42.805,6.029,13.2951,4.60004,2472.047,2017-11-26T07:34:03Z
2017-11-26T05:35:37Z,42.805,6.029,13.2944,4.60000,2472.047,2017-11-26T07:37:06Z
2017-11-26T05:38:40Z,42.805,6.029,13.2949,4.60003,2472.047,2017-11-26T07:40:09Z
2017-11-26T05:41:43Z,42.805,6.029,13.2954,4.60001,2472.092,2017-11-26T07:43:11Z
2017-11-26T05:44:46Z,42.805,6.029,13.2943,4.59984,2472.047,2017-11-26T07:46:14Z
2017-11-26T05:47:49Z,42.805,6.029,13.2954,4.59975,2472.047,2017-11-26T07:49:17Z
2017-11-26T05:50:52Z,42.805,6.029,13.2951,4.59992,2472.032,2017-11-26T07:52:20Z
2017-11-26T05:53:55Z,42.805,6.029,13.2954,4.60001,2472.055,2017-11-26T07:55:23Z
2017-11-26T05:56:58Z,42.805,6.029,13.2952,4.60001,2472.032,2017-11-26T07:58:26Z
2017-11-26T06:00:01Z,42.805,6.029,13.2955,4.60015,2472.069,2017-11-26T08:01:29Z
2017-11-26T06:03:03Z,42.805,6.029,13.2961,4.60005,2472.032,2017-11-26T08:04:32Z
2017-11-26T06:06:06Z,42.805,6.029,13.2955,4.60000,2472.047,2017-11-26T08:07:35Z
2017-11-26T06:09:09Z,42.805,6.029,13.2948,4.59991,2472.069,2017-11-26T08:10:37Z
2017-11-26T06:12:12Z,42.805,6.029,13.2944,4.59987,2472.032,2017-11-26T08:13:40Z
2017-11-26T06:15:15Z,42.805,6.029,13.2949,4.59975,2472.055,2017-11-26T08:16:43Z
2017-11-26T06:18:18Z,42.805,6.029,13.2950,4.59977,2472.047,2017-11-26T08:19:46Z
2017-11-26T06:21:21Z,42.805,6.029,13.2951,4.59988,2472.047,2017-11-26T08:22:49Z
2017-11-26T06:24:24Z,42.805,6.029,13.2955,4.59990,2472.069,2017-11-26T08:25:52Z
2017-11-26T06:27:27Z,42.805,6.029,13.2951,4.59993,2472.032,2017-11-26T08:28:55Z
2017-11-26T06:30:29Z,42.805,6.029,13.2955,4.59992,2472.047,2017-11-26T08:31:58Z
2017-11-26T06:33:32Z,42.805,6.029,13.2957,4.59987,2472.069,2017-11-26T08:35:01Z
2017-11-26T06:36:35Z,42.805,6.029,13.2944,4.59984,2472.055,2017-11-26T08:38:03Z
2017-11-26T06:39:38Z,42.805,6.029,13.2951,4.59994,2472.069,2017-11-26T08:41:06Z
2017-11-26T06:42:41Z,42.805,6.029,13.2948,4.59987,2472.069,2017-11-26T08:44:09Z
2017-11-26T06:45:44Z,42.805,6.029,13.2950,4.59988,2472.069,2017-11-26T08:47:12Z
2017-11-26T06:48:47Z,42.805,6.029,13.2951,4.59990,2472.069,2017-11-26T08:50:15Z
2017-11-26T06:51:50Z,42.805,6.029,13.2949,4.59981,2472.055,2017-11-26T08:53:18Z
2017-11-26T06:54:53Z,42.805,6.029,13.2952,4.59988,2472.092,2017-11-26T08:56:21Z
2017-11-26T06:57:55Z,42.805,6.029,13.2948,4.59993,2472.024,2017-11-26T08:59:24Z
2017-11-26T07:00:58Z,42.805,6.029,13.2945,4.59987,2472.069,2017-11-26T09:02:27Z
2017-11-26T07:04:01Z,42.805,6.029,13.2950,4.59973,2472.069,2017-11-26T09:05:30Z
2017-11-26T07:07:04Z,42.805,6.029,13.2953,4.59980,2472.055,2017-11-26T09:08:32Z
2017-11-26T07:10:07Z,42.805,6.029,13.2943,4.59980,2472.032,2017-11-26T09:11:35Z
2017-11-26T07:13:10Z,42.805,6.029,13.2944,4.59978,2472.069,2017-11-26T09:14:38Z
2017-11-26T07:16:13Z,42.805,6.029,13.2944,4.59971,2472.032,2017-11-26T09:17:41Z
2017-11-26T07:19:16Z,42.805,6.029,13.2948,4.59987,2472.084,2017-11-26T09:20:44Z
2017-11-26T07:22:19Z,42.805,6.029,13.2942,4.59979,2472.055,2017-11-26T09:23:47Z
2017-11-26T07:25:21Z,42.805,6.029,13.2948,4.59978,2472.055,2017-11-26T09:26:50Z
2017-11-26T07:28:24Z,42.805,6.029,13.2951,4.59975,2472.069,2017-11-26T09:29:53Z
2017-11-26T07:31:27Z,42.805,6.029,13.2943,4.59981,2472.069,2017-11-26T09:32:56Z
2017-11-26T07:34:30Z,42.805,6.029,13.2948,4.59984,2472.069,2017-11-26T09:35:58Z
2017-11-26T07:37:33Z,42.805,6.029,13.2940,4.59980,2472.055,2017-11-26T09:39:01Z
2017-11-26T07:40:36Z,42.805,6.029,13.2945,4.59972,2472.069,2017-11-26T09:42:04Z
2017-11-26T07:43:39Z,42.805,6.029,13.2948,4.59972,2472.092,2017-11-26T09:45:07Z
2017-11-26T07:46:42Z,42.805,6.029,13.2948,4.59971,2472.092,2017-11-26T09:48:10Z
2017-11-26T07:49:45Z,42.805,6.029,13.2940,4.59978,2472.055,2017-11-26T09:51:13Z
2017-11-26T07:52:47Z,42.805,6.029,13.2943,4.59978,2472.092,2017-11-26T09:54:16Z
2017-11-26T07:55:50Z,42.805,6.029,13.2943,4.59981,2472.092,2017-11-26T09:57:19Z
2017-11-26T07:58:53Z,42.805,6.029,13.2951,4.59982,2472.069,2017-11-26T10:00:22Z
2017-11-26T08:01:56Z,42.805,6.029,13.2948,4.59971,2472.069,2017-11-26T10:03:24Z
2017-11-26T08:04:59Z,42.805,6.029,13.2947,4.59978,2472.092,2017-11-26T10:06:27Z
2017-11-26T08:08:02Z,42.805,6.029,13.2949,4.59981,2472.092,2017-11-26T10:09:30Z
2017-11-26T08:11:05Z,42.805,6.029,13.2951,4.59977,2472.092,2017-11-26T10:12:33Z
2017-11-26T08:14:08Z,42.805,6.029,13.2948,4.59975,2472.077,2017-11-26T10:15:36Z
2017-11-26T08:17:11Z,42.805,6.029,13.2945,4.59979,2472.092,2017-11-26T10:18:39Z
2017-11-26T08:20:14Z,42.805,6.029,13.2947,4.59978,2472.092,2017-11-26T10:21:42Z
2017-11-26T08:23:16Z,42.805,6.029,13.2945,4.59981,2472.077,2017-11-26T10:24:45Z
2017-11-26T08:26:19Z,42.805,6.029,13.2941,4.59973,2472.092,2017-11-26T10:27:48Z
2017-11-26T08:29:22Z,42.805,6.029,13.2942,4.59976,2472.092,2017-11-26T10:30:51Z
2017-11-26T08:32:25Z,42.805,6.029,13.2946,4.59986,2472.092,2017-11-26T10:33:53Z
2017-11-26T08:35:28Z,42.805,6.029,13.2946,4.59984,2472.055,2017-11-26T10:36:56Z
2017-11-26T08:38:31Z,42.805,6.029,13.2940,4.59978,2472.115,2017-11-26T10:39:59Z
2017-11-26T08:41:34Z,42.805,6.029,13.2944,4.59973,2472.1,2017-11-26T10:43:02Z
2017-11-26T08:44:37Z,42.805,6.029,13.2943,4.59981,2472.137,2017-11-26T10:46:05Z
2017-11-26T08:47:40Z,42.805,6.029,13.2948,4.59982,2472.077,2017-11-26T10:49:08Z
2017-11-26T08:50:43Z,42.805,6.029,13.2946,4.59981,2472.092,2017-11-26T10:52:11Z
2017-11-26T08:53:45Z,42.805,6.029,13.2944,4.59978,2472.092,2017-11-26T10:55:14Z
2017-11-26T08:56:48Z,42.805,6.029,13.2945,4.59972,2472.115,2017-11-26T10:58:17Z
2017-11-26T08:59:51Z,42.805,6.029,13.2943,4.59981,2472.115,2017-11-26T11:01:19Z
2017-11-26T09:02:54Z,42.805,6.029,13.2948,4.59983,2472.092,2017-11-26T11:04:22Z
2017-11-26T09:05:57Z,42.805,6.029,13.2946,4.59992,2472.1,2017-11-26T11:07:25Z
2017-11-26T09:09:00Z,42.805,6.029,13.2948,4.59980,2472.092,2017-11-26T11:10:28Z
2017-11-26T09:12:03Z,42.805,6.029,13.2946,4.59982,2472.115,2017-11-26T11:13:31Z
2017-11-26T09:15:06Z,42.805,6.029,13.2950,4.59981,2472.092,2017-11-26T11:16:34Z
2017-11-26T09:18:09Z,42.805,6.029,13.2945,4.59980,2472.1,2017-11-26T11:19:37Z
2017-11-26T09:21:11Z,42.805,6.029,13.2954,4.59983,2472.123,2017-11-26T11:22:40Z
2017-11-26T09:24:14Z,42.805,6.029,13.2948,4.59990,2472.137,2017-11-26T11:25:43Z
2017-11-26T09:27:17Z,42.805,6.029,13.2946,4.60001,2472.077,2017-11-26T11:28:46Z
2017-11-26T09:30:20Z,42.805,6.029,13.2955,4.59990,2472.115,2017-11-26T11:31:48Z
2017-11-26T09:33:23Z,42.805,6.029,13.2958,4.60006,2472.115,2017-11-26T11:34:51Z
2017-11-26T09:36:26Z,42.805,6.029,13.2952,4.60001,2472.137,2017-11-26T11:37:54Z
2017-11-26T09:39:29Z,42.805,6.029,13.2945,4.59978,2472.137,2017-11-26T11:40:57Z
2017-11-26T09:42:32Z,42.805,6.029,13.2950,4.59986,2472.123,2017-11-26T11:44:00Z
2017-11-26T09:45:35Z,42.805,6.029,13.2947,4.59984,2472.123,2017-11-26T11:47:03Z
2017-11-26T09:48:38Z,42.805,6.029,13.2950,4.59987,2472.115,2017-11-26T11:50:06Z
2017-11-26T09:51:40Z,42.805,6.029,13.2945,4.59983,2472.115,2017-11-26T11:53:09Z
2017-11-26T09:54:43Z,42.805,6.029,13.2948,4.59998,2472.115,2017-11-26T11:56:12Z
2017-11-26T09:57:46Z,42.805,6.029,13.2963,4.60005,2472.137,2017-11-26T11:59:15Z
2017-11-26T10:00:49Z,42.805,6.029,13.2954,4.60003,2472.137,2017-11-26T12:02:17Z
2017-11-26T10:03:52Z,42.805,6.029,13.2955,4.60009,2472.16,2017-11-26T12:05:20Z
2017-11-26T10:06:55Z,42.805,6.029,13.2956,4.60005,2472.137,2017-11-26T12:08:23Z
2017-11-26T10:09:58Z,42.805,6.029,13.2948,4.60004,2472.145,2017-11-26T12:11:26Z
2017-11-26T10:13:01Z,42.805,6.029,13.2958,4.59998,2472.123,2017-11-26T12:14:29Z
2017-11-26T10:16:04Z,42.805,6.029,13.2954,4.59995,2472.115,2017-11-26T12:17:32Z
2017-11-26T10:19:07Z,42.805,6.029,13.2955,4.60003,2472.137,2017-11-26T12:20:35Z
2017-11-26T10:22:09Z,42.805,6.029,13.2958,4.60004,2472.145,2017-11-26T12:23:38Z
2017-11-26T10:25:12Z,42.805,6.029,13.2944,4.59994,2472.16,2017-11-26T12:26:41Z
2017-11-26T10:28:15Z,42.805,6.029,13.2950,4.59986,2472.16,2017-11-26T12:29:43Z
2017-11-26T10:31:18Z,42.805,6.029,13.2950,4.59987,2472.145,2017-11-26T12:32:46Z
2017-11-26T10:34:21Z,42.805,6.029,13.2950,4.59992,2472.137,2017-11-26T12:35:49Z
2017-11-26T10:37:24Z,42.805,6.029,13.2948,4.59992,2472.145,2017-11-26T12:38:52Z
2017-11-26T10:40:27Z,42.805,6.029,13.2960,4.60004,2472.182,2017-11-26T12:41:55Z
2017-11-26T10:43:30Z,42.805,6.029,13.2950,4.59992,2472.16,2017-11-26T12:44:58Z
2017-11-26T10:46:33Z,42.805,6.029,13.2956,4.59996,2472.205,2017-11-26T12:48:01Z
2017-11-26T10:49:35Z,42.805,6.029,13.2950,4.59987,2472.182,2017-11-26T12:51:04Z
2017-11-26T10:52:38Z,42.805,6.029,13.2953,4.60010,2472.182,2017-11-26T12:54:07Z
2017-11-26T10:55:41Z,42.805,6.029,13.2966,4.60001,2472.182,2017-11-26T12:57:10Z
2017-11-26T10:58:44Z,42.805,6.029,13.2943,4.59987,2472.182,2017-11-26T13:00:12Z
2017-11-26T11:01:47Z,42.805,6.029,13.2947,4.59989,2472.182,2017-11-26T13:03:15Z
2017-11-26T11:04:50Z,42.805,6.029,13.2943,4.59982,2472.182,2017-11-26T13:06:18Z
2017-11-26T11:07:53Z,42.805,6.029,13.2951,4.59983,2472.137,2017-11-26T13:09:21Z
2017-11-26T11:10:56Z,42.805,6.029,13.2950,4.59987,2472.16,2017-11-26T13:12:24Z
2017-11-26T11:13:59Z,42.805,6.029,13.2957,4.60005,2472.182,2017-11-26T13:15:27Z
2017-11-26T11:17:02Z,42.805,6.029,13.2958,4.60023,2472.182,2017-11-26T13:18:30Z
2017-11-26T11:20:04Z,42.805,6.029,13.2962,4.60012,2472.168,2017-11-26T13:21:33Z
2017-11-26T11:23:07Z,42.805,6.029,13.2964,4.60016,2472.182,2017-11-26T13:24:36Z
2017-11-26T11:26:10Z,42.805,6.029,13.2961,4.60019,2472.16,2017-11-26T13:27:39Z
2017-11-26T11:29:13Z,42.805,6.029,13.2957,4.59997,2472.168,2017-11-26T13:30:41Z
2017-11-26T11:32:16Z,42.805,6.029,13.2948,4.60002,2472.19,2017-11-26T13:33:44Z
2017-11-26T11:35:19Z,42.805,6.029,13.2954,4.60015,2472.16,2017-11-26T13:36:47Z
2017-11-26T11:38:22Z,42.805,6.029,13.2951,4.60006,2472.16,2017-11-26T13:39:50Z
2017-11-26T11:41:25Z,42.805,6.029,13.2964,4.60014,2472.182,2017-11-26T13:42:53Z
2017-11-26T11:44:28Z,42.805,6.029,13.2961,4.60012,2472.168,2017-11-26T13:45:56Z
2017-11-26T11:47:30Z,42.805,6.029,13.2968,4.60018,2472.205,2017-11-26T13:48:59Z
2017-11-26T11:50:33Z,42.805,6.029,13.2951,4.60028,2472.205,2017-11-26T13:52:02Z
2017-11-26T11:53:36Z,42.805,6.029,13.2957,4.60015,2472.19,2017-11-26T13:55:05Z
2017-11-26T11:56:39Z,42.805,6.029,13.2962,4.60018,2472.145,2017-11-26T13:58:07Z
2017-11-26T11:59:42Z,42.805,6.029,13.2962,4.60005,2472.145,2017-11-26T14:01:10Z
2017-11-26T12:02:45Z,42.805,6.029,13.2943,4.60007,2472.205,2017-11-26T14:04:13Z
2017-11-26T12:05:48Z,42.805,6.029,13.2954,4.60013,2472.182,2017-11-26T14:07:16Z
2017-11-26T12:08:51Z,42.805,6.029,13.2976,4.60021,2472.145,2017-11-26T14:10:19Z
2017-11-26T12:11:54Z,42.805,6.029,13.2955,4.60015,2472.182,2017-11-26T14:13:22Z
2017-11-26T12:14:57Z,42.805,6.029,13.2954,4.59998,2472.137,2017-11-26T14:16:25Z
2017-11-26T12:17:59Z,42.805,6.029,13.2951,4.60003,2472.182,2017-11-26T14:19:28Z
2017-11-26T12:21:02Z,42.805,6.029,13.2974,4.59995,2472.168,2017-11-26T14:22:31Z
2017-11-26T12:24:05Z,42.805,6.029,13.2968,4.60016,2472.205,2017-11-26T14:25:34Z
2017-11-26T12:27:08Z,42.805,6.029,13.2965,4.60002,2472.16,2017-11-26T14:28:36Z
2017-11-26T12:30:11Z,42.805,6.029,13.2972,4.60007,2472.168,2017-11-26T14:31:39Z
2017-11-26T12:33:14Z,42.805,6.029,13.2961,4.60020,2472.19,2017-11-26T14:34:42Z
2017-11-26T12:36:17Z,42.805,6.029,13.2956,4.60004,2472.182,2017-11-26T14:37:45Z
2017-11-26T12:39:20Z,42.805,6.029,13.2964,4.59978,2472.182,2017-11-26T14:40:48Z
2017-11-26T12:42:23Z,42.805,6.029,13.2968,4.60030,2472.168,2017-11-26T14:43:51Z
2017-11-26T12:45:26Z,42.805,6.029,13.2958,4.60022,2472.182,2017-11-26T14:46:54Z
2017-11-26T12:48:28Z,42.805,6.029,13.2955,4.60003,2472.182,2017-11-26T14:49:57Z
2017-11-26T12:51:31Z,42.805,6.029,13.2967,4.60011,2472.168,2017-11-26T14:53:00Z
2017-11-26T12:54:34Z,42.805,6.029,13.2975,4.60002,2472.168,2017-11-26T14:56:03Z
2017-11-26T12:57:37Z,42.805,6.029,13.2974,4.60009,2472.168,2017-11-26T14:59:05Z
2017-11-26T13:00:40Z,42.805,6.029,13.2970,4.60024,2472.182,2017-11-26T15:02:08Z
2017-11-26T13:03:43Z,42.805,6.029,13.2976,4.60020,2472.137,2017-11-26T15:05:11Z
2017-11-26T13:06:46Z,42.805,6.029,13.2972,4.60021,2472.168,2017-11-26T15:08:14Z
2017-11-26T13:09:49Z,42.805,6.029,13.2960,4.60009,2472.182,2017-11-26T15:11:17Z
2017-11-26T13:12:52Z,42.805,6.029,13.2970,4.60015,2472.137,2017-11-26T15:14:20Z
2017-11-26T13:15:55Z,42.805,6.029,13.2969,4.60026,2472.16,2017-11-26T15:17:23Z
2017-11-26T13:18:57Z,42.805,6.029,13.2973,4.60015,2472.205,2017-11-26T15:20:26Z
2017-11-26T13:22:00Z,42.805,6.029,13.2962,4.60015,2472.16,2017-11-26T15:23:29Z
2017-11-26T13:25:03Z,42.805,6.029,13.2960,4.60007,2472.168,2017-11-26T15:26:31Z
2017-11-26T13:28:06Z,42.805,6.029,13.2965,4.60006,2472.16,2017-11-26T15:29:34Z
2017-11-26T13:31:09Z,42.805,6.029,13.2950,4.60035,2472.145,2017-11-26T15:32:37Z
2017-11-26T13:34:12Z,42.805,6.029,13.2968,4.60006,2472.145,2017-11-26T15:35:40Z
2017-11-26T13:37:15Z,42.805,6.029,13.2965,4.60018,2472.182,2017-11-26T15:38:43Z
2017-11-26T13:40:18Z,42.805,6.029,13.2958,4.60004,2472.16,2017-11-26T15:41:46Z
2017-11-26T13:43:21Z,42.805,6.029,13.2964,4.60003,2472.145,2017-11-26T15:44:49Z
2017-11-26T13:46:23Z,42.805,6.029,13.2972,4.60009,2472.182,2017-11-26T15:47:52Z
2017-11-26T13:49:26Z,42.805,6.029,13.2966,4.60019,2472.145,2017-11-26T15:50:55Z
2017-11-26T13:52:29Z,42.805,6.029,13.2958,4.60030,2472.168,2017-11-26T15:53:58Z
2017-11-26T13:55:32Z,42.805,6.029,13.2950,4.60005,2472.123,2017-11-26T15:57:00Z
2017-11-26T13:58:35Z,42.805,6.029,13.2971,4.60012,2472.182,2017-11-26T16:00:03Z
2017-11-26T14:01:38Z,42.805,6.029,13.2970,4.60025,2472.16,2017-11-26T16:03:06Z
2017-11-26T14:04:41Z,42.805,6.029,13.2970,4.60004,2472.182,2017-11-26T16:06:09Z
2017-11-26T14:07:44Z,42.805,6.029,13.2973,4.60014,2472.182,2017-11-26T16:09:12Z
2017-11-26T14:10:47Z,42.805,6.029,13.2972,4.60035,2472.16,2017-11-26T16:12:15Z
2017-11-26T14:13:50Z,42.805,6.029,13.2969,4.60014,2472.137,2017-11-26T16:15:18Z
2017-11-26T14:16:52Z,42.805,6.029,13.2958,4.60019,2472.16,2017-11-26T16:18:21Z
2017-11-26T14:19:55Z,42.805,6.029,13.2966,4.60009,2472.137,2017-11-26T16:21:24Z
2017-11-26T14:22:58Z,42.805,6.029,13.2968,4.60009,2472.16,2017-11-26T16:24:27Z
2017-11-26T14:26:01Z,42.805,6.029,13.2982,4.60032,2472.145,2017-11-26T16:27:29Z
2017-11-26T14:29:04Z,42.805,6.029,13.2973,4.59982,2472.137,2017-11-26T16:30:32Z
2017-11-26T14:32:07Z,42.805,6.029,13.2981,4.60041,2472.175,2017-11-26T16:33:35Z
2017-11-26T14:35:11Z,42.805,6.029,13.2958,4.60030,2472.145,2017-11-26T16:36:39Z
2017-11-26T14:38:13Z,42.805,6.029,13.2970,4.60028,2472.145,2017-11-26T16:39:42Z
2017-11-26T14:41:16Z,42.805,6.029,13.2975,4.60044,2472.16,2017-11-26T16:42:45Z
2017-11-26T14:44:19Z,42.805,6.029,13.2969,4.60040,2472.16,2017-11-26T16:45:48Z
2017-11-26T14:47:22Z,42.805,6.029,13.2978,4.60003,2472.137,2017-11-26T16:48:50Z
2017-11-26T14:50:25Z,42.805,6.029,13.2962,4.59979,2472.123,2017-11-26T16:51:53Z
2017-11-26T14:53:28Z,42.805,6.029,13.2976,4.60013,2472.137,2017-11-26T16:54:56Z
2017-11-26T14:56:31Z,42.805,6.029,13.2975,4.59988,2472.137,2017-11-26T16:57:59Z